Washington, MS

2:44 PM CST on February 11, 2016 (GMT -0600)
Hardy-Anders-Adams County

Weather History for KHEZ - April, 2013

Change the Weather History Date:

Tuesday, April 9, 2013

  Actual Average Record
Temperature  
Mean Temperature 76 °F -  
Max Temperature 87 °F 76 °F 88 °F (1965)
Min Temperature 66 °F 51 °F 37 °F (1938)
Cooling Degree Days 12    
Growing Degree Days 26 (Base 50)    
Moisture  
Dew Point 32 °F    
Average Humidity 29    
Maximum Humidity 83    
Minimum Humidity 10    
Precipitation  
Precipitation 0.00 in - - ()
Sea Level Pressure  
Sea Level Pressure 29.92 in    
Wind  
Wind Speed 12 mph (SSE)    
Max Wind Speed 24 mph    
Max Gust Speed 31 mph    
Visibility 10 miles    
Events      
Averages and records for this station are not official NWS values.
T = Trace of Precipitation, MM = Missing Value Source: NWS Daily Summary

Daily Weather History Graph

Daily Weather History Graph

Search for Another Location

Airport or City:

Trip Planner

Search our weather history database for the weather conditions in past years. The results will help you decide how hot, cold, wet, or windy it might be!

Date:

Astronomy

Apr. 09, 2013 Rise Set
Actual Time 6:43 AM CDT 7:30 PM CDT
Civil Twilight 6:18 AM CDT 7:55 PM CDT
Nautical Twilight 5:49 AM CDT 8:24 PM CDT
Astronomical Twilight 5:19 AM CDT 8:54 PM CDT
Moon 6:04 AM CDT (4/9) 7:05 PM CDT (4/9)
Length of Visible Light 13h 36m
Length of Day
12h 46m
Waning Crescent, 1% of the Moon is Illuminated
Apr 9
Waning Crescent
Apr 10
New
Apr 18
First Quarter
Apr 25
Full
May 2
Last Quarter

Hourly Weather History & Observations

Time (CDT) Temp. Heat Index Dew Point Humidity Pressure Visibility Wind Dir Wind Speed Gust Speed Precip Events Conditions
12:15 AM 68.0 °F - 10.4 °F 11% 29.94 in 10.0 mi South 8.1 mph - N/A   Mostly Cloudy
12:35 AM 68.0 °F - 10.4 °F 11% 29.94 in 10.0 mi SSE 8.1 mph - N/A   Mostly Cloudy
12:55 AM 66.2 °F - 10.4 °F 11% 29.94 in 10.0 mi South 10.4 mph - N/A   Partly Cloudy
1:15 AM 66.2 °F - 10.4 °F 11% 29.93 in 10.0 mi South 8.1 mph - N/A   Partly Cloudy
1:35 AM 66.2 °F - 10.4 °F 11% 29.92 in 10.0 mi SSE 6.9 mph - N/A   Mostly Cloudy
1:55 AM 66.2 °F - 10.4 °F 11% 29.92 in 10.0 mi SSE 6.9 mph - N/A   Mostly Cloudy
2:15 AM 66.2 °F - 10.4 °F 11% 29.91 in 10.0 mi SSE 8.1 mph - N/A   Scattered Clouds
2:35 AM 66.2 °F - 10.4 °F 11% 29.91 in 10.0 mi SSE 6.9 mph - N/A   Scattered Clouds
2:55 AM 66.2 °F - 10.4 °F 11% 29.90 in 10.0 mi SE 9.2 mph - N/A   Mostly Cloudy
3:15 AM 66.2 °F - 10.4 °F 11% 29.89 in 10.0 mi SSE 5.8 mph - N/A   Scattered Clouds
3:35 AM 66.2 °F - 10.4 °F 11% 29.88 in 10.0 mi SSE 9.2 mph - N/A   Mostly Cloudy
3:55 AM 66.2 °F - 10.4 °F 11% 29.88 in 10.0 mi SSE 8.1 mph - N/A   Mostly Cloudy
4:15 AM 68.0 °F - 10.4 °F 11% 29.88 in 10.0 mi South 9.2 mph - N/A   Mostly Cloudy
4:35 AM 68.0 °F - 10.4 °F 11% 29.88 in 10.0 mi SSE 9.2 mph - N/A   Scattered Clouds
4:55 AM 68.0 °F - 10.4 °F 11% 29.89 in 10.0 mi SSE 8.1 mph - N/A   Mostly Cloudy
5:15 AM 69.8 °F - 10.4 °F 10% 29.88 in 10.0 mi SSE 11.5 mph - N/A   Mostly Cloudy
5:35 AM 68.0 °F - 10.4 °F 11% 29.89 in 10.0 mi SSE 8.1 mph - N/A   Mostly Cloudy
5:55 AM 68.0 °F - 12.2 °F 12% 29.89 in 10.0 mi SSE 11.5 mph - N/A   Overcast
6:15 AM 69.8 °F - 12.2 °F 11% 29.89 in 10.0 mi South 8.1 mph - N/A   Overcast
6:35 AM 69.8 °F - 12.2 °F 11% 29.91 in 10.0 mi South 16.1 mph 19.6 mph N/A   Overcast
6:55 AM 69.8 °F - 12.2 °F 11% 29.92 in 10.0 mi South 13.8 mph 23.0 mph N/A   Overcast
7:15 AM 71.6 °F - 12.2 °F 10% 29.92 in 10.0 mi South 17.3 mph 26.5 mph N/A   Overcast
7:35 AM 71.6 °F - 12.2 °F 10% 29.93 in 10.0 mi South 19.6 mph 24.2 mph N/A   Overcast
7:55 AM 71.6 °F - 12.2 °F 10% 29.93 in 10.0 mi South 13.8 mph - N/A   Mostly Cloudy
8:35 AM 73.4 °F - 14.0 °F 10% 29.94 in 10.0 mi South 11.5 mph - N/A   Overcast
8:55 AM 73.4 °F - 15.8 °F 11% 29.94 in 10.0 mi South 13.8 mph - N/A   Overcast
9:15 AM 75.2 °F - 15.8 °F 11% 29.95 in 10.0 mi South 17.3 mph 23.0 mph N/A   Overcast
9:35 AM 75.2 °F - 15.8 °F 11% 29.96 in 10.0 mi South 11.5 mph 23.0 mph N/A   Overcast
9:55 AM 75.2 °F - 15.8 °F 11% 29.96 in 10.0 mi South 11.5 mph 21.9 mph N/A   Overcast
10:15 AM 77.0 °F - 17.6 °F 11% 29.97 in 10.0 mi South 13.8 mph 23.0 mph N/A   Overcast
10:35 AM 77.0 °F - 17.6 °F 11% 29.97 in 10.0 mi South 16.1 mph 21.9 mph N/A   Overcast
10:55 AM 78.8 °F - 17.6 °F 10% 29.97 in 10.0 mi South 13.8 mph 21.9 mph N/A   Overcast
11:15 AM 80.6 °F - 19.4 °F 10% 29.97 in 10.0 mi South 16.1 mph 23.0 mph N/A   Overcast
11:35 AM 80.6 °F - 19.4 °F 10% 29.96 in 10.0 mi South 18.4 mph 27.6 mph N/A   Mostly Cloudy
11:55 AM 82.4 °F - 19.4 °F 10% 29.96 in 10.0 mi South 16.1 mph 28.8 mph N/A   Mostly Cloudy
12:55 PM 82.4 °F - 21.2 °F 10% 29.95 in 10.0 mi South 17.3 mph 25.3 mph N/A   Overcast
1:15 PM 84.2 °F - 21.2 °F 10% 29.94 in 10.0 mi South 15.0 mph 21.9 mph N/A   Mostly Cloudy
1:35 PM 84.2 °F - 23.0 °F 11% 29.92 in 10.0 mi SSE 18.4 mph 21.9 mph N/A   Mostly Cloudy
1:55 PM 84.2 °F - 23.0 °F 11% 29.92 in 10.0 mi South 18.4 mph 24.2 mph N/A   Mostly Cloudy
2:15 PM 84.2 °F - 23.0 °F 11% 29.92 in 10.0 mi South 17.3 mph 28.8 mph N/A   Mostly Cloudy
2:35 PM 86.0 °F - 23.0 °F 10% 29.92 in 10.0 mi South 16.1 mph 26.5 mph N/A   Mostly Cloudy
2:55 PM 86.0 °F - 24.8 °F 11% 29.91 in 10.0 mi South 16.1 mph 27.6 mph N/A   Scattered Clouds
3:15 PM 86.0 °F - 24.8 °F 11% 29.91 in 10.0 mi South 17.3 mph 26.5 mph N/A   Scattered Clouds
3:35 PM 84.2 °F - 23.0 °F 11% 29.90 in 10.0 mi South 18.4 mph 25.3 mph N/A   Partly Cloudy
3:55 PM 84.2 °F - 23.0 °F 11% 29.89 in 10.0 mi South 18.4 mph 27.6 mph N/A   Partly Cloudy
4:15 PM 87.8 °F - 24.8 °F 10% 29.89 in 10.0 mi South 10.4 mph 19.6 mph N/A   Partly Cloudy
4:35 PM 84.2 °F - - N/A% 29.89 in 10.0 mi South 16.1 mph 25.3 mph N/A   Mostly Cloudy
4:55 PM 84.2 °F 87.3 °F 68.0 °F 58% 29.90 in 10.0 mi South 13.8 mph - N/A   Partly Cloudy
5:15 PM 84.2 °F 87.3 °F 68.0 °F 58% 29.91 in 10.0 mi South 13.8 mph 20.7 mph N/A   Mostly Cloudy
5:35 PM 82.4 °F 85.4 °F 68.0 °F 62% 29.92 in 10.0 mi South 15.0 mph 19.6 mph N/A   Scattered Clouds
5:55 PM 82.4 °F 84.6 °F 66.2 °F 58% 29.92 in 10.0 mi South 13.8 mph 19.6 mph N/A   Partly Cloudy
6:16 PM 80.6 °F 83.2 °F 68.0 °F 65% 29.92 in 10.0 mi SSE 18.4 mph - N/A   Partly Cloudy
6:35 PM 80.6 °F 82.7 °F 66.2 °F 61% 29.91 in 10.0 mi SSE 12.7 mph 26.5 mph N/A   Partly Cloudy
6:55 PM 80.6 °F 83.2 °F 68.0 °F 65% 29.90 in 10.0 mi SSE 13.8 mph 20.7 mph N/A   Clear
7:15 PM 78.8 °F - 68.0 °F 69% 29.89 in 10.0 mi SE 12.7 mph 16.1 mph N/A   Clear
7:35 PM 78.8 °F - 69.8 °F 74% 29.88 in 10.0 mi SE 17.3 mph 24.2 mph N/A   Clear
7:55 PM 78.8 °F - 69.8 °F 74% 29.83 in 10.0 mi SE 24.2 mph 29.9 mph N/A   Clear
8:15 PM 78.8 °F - 69.8 °F 74% 29.86 in 10.0 mi SSE 16.1 mph 31.1 mph N/A   Clear
8:35 PM 77.0 °F - 69.8 °F 78% 29.91 in 10.0 mi South 12.7 mph 27.6 mph N/A   Partly Cloudy
8:55 PM 78.8 °F - 69.8 °F 74% 29.93 in 10.0 mi SSE 13.8 mph 21.9 mph N/A   Mostly Cloudy
9:15 PM 78.8 °F - 69.8 °F 74% 29.94 in 10.0 mi SSE 15.0 mph 20.7 mph N/A   Overcast
9:55 PM 77.0 °F - 69.8 °F 78% 29.94 in 10.0 mi South 17.3 mph 24.2 mph N/A   Mostly Cloudy
10:15 PM 77.0 °F - 69.8 °F 78% 29.95 in 10.0 mi SSE 12.7 mph 18.4 mph N/A   Scattered Clouds
10:55 PM 77.0 °F - 69.8 °F 78% 29.95 in 10.0 mi SSE 10.4 mph 16.1 mph N/A   Overcast
11:15 PM 77.0 °F - 69.8 °F 78% 29.94 in 10.0 mi SSE 13.8 mph - N/A   Overcast
11:35 PM 77.0 °F - 69.8 °F 78% 29.94 in 10.0 mi SSE 13.8 mph 18.4 mph N/A   Overcast
11:55 PM 75.2 °F - 69.8 °F 83% 29.93 in 10.0 mi SSE 13.8 mph 17.3 mph N/A   Overcast